Flagstaff, AZ

10:54 PM MST on April 24, 2017 (GMT -0700)
Flagstaff Pulliam

Weather History for KFLG - April, 2014

Change the Weather History Date:

Monday, April 14, 2014

  Actual Average Record
Temperature  
Mean Temperature 40 °F 43 °F  
Max Temperature 55 °F 58 °F 75 °F (1937)
Min Temperature 24 °F 28 °F 5 °F (1972)
Degree Days  
Heating Degree Days 25 22  
Month to date heating degree days 321 332  
Since 1 July heating degree days 5683 6039  
Cooling Degree Days 0 0  
Month to date cooling degree days 0 0  
Year to date cooling degree days 0 0  
Moisture  
Dew Point 7 °F    
Average Humidity 27    
Maximum Humidity 41    
Minimum Humidity 13    
Precipitation  
Precipitation 0.00 in 0.04 in 0.71 in (1976)
Month to date precipitation 0.33 0.64  
Year to date precipitation 2.17 6.97  
Snow  
Snow 0.00 in 0.20 in 9.70 in (2012)
Month to date snowfall 3.6 3.9  
Since 1 July snowfall 38.5 97.8  
Snow Depth 0.00 in    
Sea Level Pressure  
Sea Level Pressure 30.10 in    
Wind  
Wind Speed 14 mph (ENE)    
Max Wind Speed 31 mph    
Max Gust Speed 42 mph    
Visibility 10 miles    
Events      
T = Trace of Precipitation, MM = Missing Value Source: NWS Daily Summary

Daily Weather History Graph

Daily Weather History Graph

Search for Another Location

Airport or City:

Trip Planner

Search our weather history database for the weather conditions in past years. The results will help you decide how hot, cold, wet, or windy it might be!

Date:

Astronomy

Apr. 14, 2014 Rise Set
Actual Time 5:55 AM MST 6:58 PM MST
Civil Twilight 5:29 AM MST 7:24 PM MST
Nautical Twilight 4:58 AM MST 7:55 PM MST
Astronomical Twilight 4:26 AM MST 8:27 PM MST
Moon 6:41 PM MST (4/14) 5:28 AM MST (4/14)
Length of Visible Light 13h 55m
Length of Day
13h 02m
Full, 100% of the Moon is Illuminated
Apr 14
Full
Apr 15
Full
Apr 22
Last Quarter
Apr 28
New
May 6
First Quarter

Hourly Weather History & Observations

Time (MST) Temp. Windchill Dew Point Humidity Pressure Visibility Wind Dir Wind Speed Gust Speed Precip Events Conditions
12:57 AM 36.0 °F 28.0 °F 8.1 °F 31% 29.96 in 10.0 mi NNE 11.5 mph 19.6 mph N/A   Clear
1:57 AM 37.0 °F 27.0 °F 3.9 °F 25% 29.94 in 10.0 mi NE 18.4 mph 25.3 mph N/A   Clear
2:57 AM 34.0 °F 26.0 °F 9.0 °F 35% 29.96 in 10.0 mi NE 10.4 mph - N/A   Clear
3:57 AM 34.0 °F 22.1 °F 10.0 °F 37% 29.94 in 10.0 mi ENE 21.9 mph 27.6 mph N/A   Clear
4:57 AM 34.0 °F 21.5 °F 10.0 °F 37% 29.97 in 10.0 mi NE 24.2 mph 35.7 mph N/A   Clear
5:57 AM 33.1 °F 21.2 °F 10.9 °F 40% 30.01 in 10.0 mi NE 20.7 mph 31.1 mph N/A   Clear
6:57 AM 34.0 °F 21.8 °F 12.0 °F 40% 30.06 in 10.0 mi NE 23.0 mph 33.4 mph N/A   Clear
7:57 AM 37.9 °F 26.3 °F 12.0 °F 35% 30.09 in 10.0 mi NE 26.5 mph 32.2 mph N/A   Clear
8:57 AM 39.9 °F 30.5 °F 10.9 °F 31% 30.12 in 10.0 mi ENE 19.6 mph 32.2 mph N/A   Clear
9:57 AM 42.1 °F 33.3 °F 9.0 °F 26% 30.14 in 10.0 mi ENE 19.6 mph 34.5 mph N/A   Clear
10:57 AM 44.1 °F 35.7 °F 6.1 °F 21% 30.15 in 10.0 mi ENE 20.7 mph 32.2 mph N/A   Clear
11:57 AM 46.9 °F - 8.1 °F 21% 30.16 in 10.0 mi ENE 21.9 mph 32.2 mph N/A   Clear
12:57 PM 48.9 °F - 8.1 °F 19% 30.14 in 10.0 mi East 16.1 mph 25.3 mph N/A   Clear
1:57 PM 52.0 °F - 5.0 °F 15% 30.11 in 10.0 mi ENE 15.0 mph 27.6 mph N/A   Clear
2:57 PM 53.1 °F - 6.1 °F 15% 30.11 in 10.0 mi NE 15.0 mph 23.0 mph N/A   Clear
3:57 PM 53.1 °F - 5.0 °F 14% 30.10 in 10.0 mi ENE 11.5 mph 20.7 mph N/A   Clear
4:57 PM 52.0 °F - 3.0 °F 14% 30.11 in 10.0 mi East 10.4 mph - N/A   Clear
5:57 PM 51.1 °F - 3.9 °F 15% 30.12 in 10.0 mi East 11.5 mph - N/A   Clear
6:57 PM 46.0 °F 43.1 °F 7.0 °F 20% 30.14 in 10.0 mi East 5.8 mph - N/A   Clear
7:57 PM 39.9 °F 35.8 °F 7.0 °F 26% 30.17 in 10.0 mi SSE 5.8 mph - N/A   Clear
8:57 PM 35.1 °F 32.2 °F 6.1 °F 30% 30.19 in 10.0 mi NE 3.5 mph - N/A   Clear
9:57 PM 28.9 °F - 6.1 °F 38% 30.22 in 10.0 mi Calm Calm - N/A   Clear
10:57 PM 26.1 °F - 5.0 °F 41% 30.22 in 10.0 mi Calm Calm - N/A   Clear
11:57 PM 25.0 °F - 5.0 °F 43% 30.20 in 10.0 mi Calm Calm - N/A   Clear